| time (UTC) | temp C | wind direction | speed KPH | gust KPH | rain 1hr cm | rain 24hr cm | rain mn cm | humidity % | barometer mb |
| 20260507152017 | 26 | 44 | 3.2 | 12.9 | 0.00 | 0.00 | 0.00 | 23 | 1014.7 |
| 20260507151517 | 26 | 44 | 1.6 | 12.9 | 0.00 | 0.00 | 0.00 | 24 | 1014.8 |
| 20260507151017 | 26 | 2 | 1.6 | 8.0 | 0.00 | 0.00 | 0.00 | 22 | 1014.8 |
| 20260507150517 | 25 | 1 | 3.2 | 8.0 | 0.00 | 0.00 | 0.00 | 21 | 1014.8 |
| 20260507150017 | 25 | 7 | 1.6 | 8.0 | 0.00 | 0.00 | 0.00 | 24 | 1014.8 |
| 20260507145517 | 25 | 20 | 1.6 | 8.0 | 0.00 | 0.00 | 0.00 | 25 | 1014.8 |
| 20260507145017 | 24 | 76 | 1.6 | 6.4 | 0.00 | 0.00 | 0.00 | 24 | 1014.8 |
| 20260507144517 | 23 | 86 | 0.0 | 6.4 | 0.00 | 0.00 | 0.00 | 24 | 1014.8 |
| 20260507144016 | 23 | 76 | 0.0 | 3.2 | 0.00 | 0.00 | 0.00 | 27 | 1014.9 |
| 20260507143517 | 23 | 51 | 0.0 | 3.2 | 0.00 | 0.00 | 0.00 | 26 | 1014.9 |
| 20260507143017 | 22 | 37 | 0.0 | 4.8 | 0.00 | 0.00 | 0.00 | 31 | 1014.8 |
| 20260507142517 | 22 | 37 | 0.0 | 4.8 | 0.00 | 0.00 | 0.00 | 31 | 1014.8 |
| 20260507142016 | 21 | 56 | 0.0 | 1.6 | 0.00 | 0.00 | 0.00 | 29 | 1014.8 |
| 20260507141516 | 21 | 53 | 1.6 | 6.4 | 0.00 | 0.00 | 0.00 | 28 | 1014.7 |
| 20260507141017 | 20 | 56 | 1.6 | 6.4 | 0.00 | 0.00 | 0.00 | 28 | 1014.7 |
| 20260507140516 | 20 | 98 | 1.6 | 4.8 | 0.00 | 0.00 | 0.00 | 32 | 1014.7 |
| 20260507140017 | 20 | 44 | 1.6 | 4.8 | 0.00 | 0.00 | 0.00 | 34 | 1014.7 |
| 20260507135516 | 20 | 25 | 0.0 | 4.8 | 0.00 | 0.00 | 0.00 | 37 | 1014.6 |
| 20260507135017 | 19 | 3 | 0.0 | 1.6 | 0.00 | 0.00 | 0.00 | 34 | 1014.6 |
| 20260507134517 | 18 | 4 | 0.0 | 1.6 | 0.00 | 0.00 | 0.00 | 34 | 1014.6 |
| 20260507134017 | 18 | 100 | 0.0 | 3.2 | 0.00 | 0.00 | 0.00 | 33 | 1014.6 |
| 20260507133517 | 18 | 37 | 1.6 | 3.2 | 0.00 | 0.00 | 0.00 | 33 | 1014.5 |
| 20260507133016 | 18 | 49 | 0.0 | 3.2 | 0.00 | 0.00 | 0.00 | 34 | 1014.5 |
| 20260507132516 | 17 | 14 | 0.0 | 3.2 | 0.00 | 0.00 | 0.00 | 33 | 1014.5 |
| 20260507132017 | 17 | 86 | 0.0 | 3.2 | 0.00 | 0.00 | 0.00 | 34 | 1014.4 |
| 20260507131517 | 17 | 71 | 1.6 | 4.8 | 0.00 | 0.00 | 0.00 | 34 | 1014.4 |
| 20260507131017 | 17 | 73 | 1.6 | 4.8 | 0.00 | 0.00 | 0.00 | 35 | 1014.4 |
| 20260507130517 | 17 | 84 | 0.0 | 1.6 | 0.00 | 0.00 | 0.00 | 35 | 1014.3 |
| 20260507130017 | 17 | 41 | 0.0 | 4.8 | 0.00 | 0.00 | 0.00 | 35 | 1014.3 |
| 20260507125517 | 17 | 42 | 0.0 | 4.8 | 0.00 | 0.00 | 0.00 | 36 | 1014.3 |
| 20260507125017 | 17 | 66 | 0.0 | 0.0 | 0.00 | 0.00 | 0.00 | 35 | 1014.2 |
| 20260507124516 | 17 | 57 | 0.0 | 3.2 | 0.00 | 0.00 | 0.00 | 35 | 1014.2 |
| 20260507124017 | 17 | 65 | 0.0 | 3.2 | 0.00 | 0.00 | 0.00 | 34 | 1014.2 |
| 20260507123517 | 17 | 65 | 1.6 | 6.4 | 0.00 | 0.00 | 0.00 | 34 | 1014.2 |
| 20260507123017 | 17 | 20 | 3.2 | 8.0 | 0.00 | 0.00 | 0.00 | 35 | 1014.2 |
| 20260507122517 | 17 | 28 | 4.8 | 8.0 | 0.00 | 0.00 | 0.00 | 35 | 1014.2 |
| 20260507122017 | 17 | 16 | 3.2 | 8.0 | 0.00 | 0.00 | 0.00 | 35 | 1014.3 |
| 20260507121517 | 17 | 19 | 1.6 | 6.4 | 0.00 | 0.00 | 0.00 | 35 | 1014.3 |
| 20260507121017 | 17 | 55 | 3.2 | 6.4 | 0.00 | 0.00 | 0.00 | 34 | 1014.3 |
| 20260507120516 | 17 | 73 | 1.6 | 6.4 | 0.00 | 0.00 | 0.00 | 34 | 1014.3 |
| 20260507120017 | 17 | 21 | 1.6 | 4.8 | 0.00 | 0.00 | 0.00 | 34 | 1014.3 |
| 20260507115516 | 17 | 13 | 3.2 | 8.0 | 0.00 | 0.00 | 0.00 | 34 | 1014.4 |
| 20260507115016 | 17 | 0 | 4.8 | 8.0 | 0.00 | 0.00 | 0.00 | 34 | 1014.4 |
| 20260507114517 | 17 | 21 | 6.4 | 12.9 | 0.00 | 0.00 | 0.00 | 34 | 1014.4 |
| 20260507114016 | 17 | 21 | 8.0 | 14.5 | 0.00 | 0.00 | 0.00 | 34 | 1014.5 |
| 20260507113517 | 17 | 6 | 8.0 | 14.5 | 0.00 | 0.00 | 0.00 | 34 | 1014.5 |
| 20260507113017 | 17 | 0 | 4.8 | 11.3 | 0.00 | 0.00 | 0.00 | 34 | 1014.5 |
| 20260507112517 | 17 | 1 | 4.8 | 11.3 | 0.00 | 0.00 | 0.00 | 35 | 1014.5 |
| 20260507112016 | 17 | 243 | 4.8 | 11.3 | 0.00 | 0.00 | 0.00 | 35 | 1014.6 |
| 20260507111516 | 17 | 27 | 3.2 | 8.0 | 0.00 | 0.00 | 0.00 | 36 | 1014.6 |
| 20260507111016 | 17 | 3 | 3.2 | 6.4 | 0.00 | 0.00 | 0.00 | 37 | 1014.6 |
| 20260507110516 | 17 | 19 | 1.6 | 6.4 | 0.00 | 0.00 | 0.00 | 37 | 1014.7 |
| 20260507110016 | 17 | 8 | 1.6 | 6.4 | 0.00 | 0.00 | 0.00 | 36 | 1014.7 |
| 20260507105517 | 17 | 34 | 0.0 | 0.0 | 0.00 | 0.00 | 0.00 | 38 | 1014.7 |
| 20260507105017 | 17 | 53 | 0.0 | 0.0 | 0.00 | 0.00 | 0.00 | 36 | 1014.8 |
| 20260507104516 | 17 | 53 | 0.0 | 0.0 | 0.00 | 0.00 | 0.00 | 36 | 1014.8 |
| 20260507104017 | 17 | 54 | 0.0 | 0.0 | 0.00 | 0.00 | 0.00 | 36 | 1014.8 |
| 20260507103517 | 17 | 53 | 0.0 | 0.0 | 0.00 | 0.00 | 0.00 | 36 | 1014.8 |
| 20260507103016 | 17 | 48 | 1.6 | 4.8 | 0.00 | 0.00 | 0.00 | 36 | 1014.8 |
| 20260507102516 | 17 | 63 | 1.6 | 4.8 | 0.00 | 0.00 | 0.00 | 35 | 1014.9 |
| 20260507102017 | 17 | 79 | 0.0 | 3.2 | 0.00 | 0.00 | 0.00 | 36 | 1014.9 |
| 20260507101517 | 17 | 253 | 0.0 | 0.0 | 0.00 | 0.00 | 0.00 | 36 | 1014.9 |
| 20260507101017 | 17 | 15 | 0.0 | 0.0 | 0.00 | 0.00 | 0.00 | 35 | 1014.9 |
| 20260507100517 | 17 | 13 | 0.0 | 0.0 | 0.00 | 0.00 | 0.00 | 36 | 1014.9 |
| 20260507100017 | 17 | 24 | 0.0 | 0.0 | 0.00 | 0.00 | 0.00 | 36 | 1014.9 |
| 20260507095517 | 17 | 16 | 0.0 | 0.0 | 0.00 | 0.00 | 0.00 | 36 | 1014.9 |
| 20260507095016 | 17 | 18 | 0.0 | 0.0 | 0.00 | 0.00 | 0.00 | 35 | 1014.9 |
| 20260507094516 | 17 | 16 | 0.0 | 0.0 | 0.00 | 0.00 | 0.00 | 36 | 1014.9 |
| 20260507094016 | 17 | 17 | 0.0 | 0.0 | 0.00 | 0.00 | 0.00 | 35 | 1014.9 |
| 20260507093516 | 17 | 16 | 0.0 | 0.0 | 0.00 | 0.00 | 0.00 | 35 | 1014.9 |
| 20260507093017 | 17 | 15 | 0.0 | 0.0 | 0.00 | 0.00 | 0.00 | 35 | 1014.9 |
| 20260507092516 | 17 | 16 | 0.0 | 0.0 | 0.00 | 0.00 | 0.00 | 35 | 1014.9 |
| 20260507092016 | 17 | 13 | 0.0 | 4.8 | 0.00 | 0.00 | 0.00 | 34 | 1014.9 |
| 20260507091517 | 17 | 13 | 1.6 | 4.8 | 0.00 | 0.00 | 0.00 | 34 | 1014.9 |
| 20260507091016 | 17 | 10 | 1.6 | 8.0 | 0.00 | 0.00 | 0.00 | 34 | 1014.9 |
| 20260507090517 | 17 | 12 | 0.0 | 8.0 | 0.00 | 0.00 | 0.00 | 34 | 1015.0 |
| 20260507090016 | 18 | 3 | 1.6 | 4.8 | 0.00 | 0.00 | 0.00 | 34 | 1015.0 |
| 20260507085516 | 18 | 253 | 1.6 | 4.8 | 0.00 | 0.00 | 0.00 | 34 | 1015.0 |
| 20260507085017 | 18 | 231 | 0.0 | 1.6 | 0.00 | 0.00 | 0.00 | 34 | 1015.0 |
| 20260507084517 | 18 | 233 | 0.0 | 0.0 | 0.00 | 0.00 | 0.00 | 35 | 1015.1 |
| 20260507084017 | 18 | 233 | 0.0 | 0.0 | 0.00 | 0.00 | 0.00 | 35 | 1015.1 |
| 20260507083517 | 18 | 231 | 0.0 | 0.0 | 0.00 | 0.00 | 0.00 | 34 | 1015.1 |
| 20260507083016 | 18 | 233 | 0.0 | 0.0 | 0.00 | 0.00 | 0.00 | 34 | 1015.2 |
| 20260507082516 | 18 | 233 | 0.0 | 0.0 | 0.00 | 0.00 | 0.00 | 33 | 1015.2 |
| 20260507082017 | 18 | 232 | 0.0 | 0.0 | 0.00 | 0.00 | 0.00 | 33 | 1015.2 |
| 20260507081517 | 18 | 233 | 0.0 | 0.0 | 0.00 | 0.00 | 0.00 | 32 | 1015.2 |
| 20260507081016 | 18 | 231 | 0.0 | 0.0 | 0.00 | 0.00 | 0.00 | 32 | 1015.2 |
| 20260507080516 | 18 | 234 | 0.0 | 0.0 | 0.00 | 0.00 | 0.00 | 32 | 1015.2 |
| 20260507080017 | 18 | 231 | 0.0 | 0.0 | 0.00 | 0.00 | 0.00 | 32 | 1015.2 |
| 20260507075516 | 18 | 233 | 0.0 | 0.0 | 0.00 | 0.00 | 0.00 | 32 | 1015.2 |
| 20260507075016 | 18 | 231 | 0.0 | 0.0 | 0.00 | 0.00 | 0.00 | 31 | 1015.2 |
| 20260507074516 | 19 | 231 | 0.0 | 4.8 | 0.00 | 0.00 | 0.00 | 31 | 1015.1 |
| 20260507074016 | 19 | 232 | 0.0 | 4.8 | 0.00 | 0.00 | 0.00 | 32 | 1015.1 |
| 20260507073517 | 19 | 222 | 0.0 | 1.6 | 0.00 | 0.00 | 0.00 | 31 | 1015.1 |
| 20260507073017 | 20 | 131 | 0.0 | 0.0 | 0.00 | 0.00 | 0.00 | 30 | 1015.1 |
| 20260507072517 | 20 | 133 | 0.0 | 1.6 | 0.00 | 0.00 | 0.00 | 29 | 1015.0 |
| 20260507072016 | 20 | 133 | 0.0 | 1.6 | 0.00 | 0.00 | 0.00 | 31 | 1015.0 |
| 20260507071517 | 20 | 131 | 0.0 | 3.2 | 0.00 | 0.00 | 0.00 | 31 | 1015.0 |
| 20260507071017 | 20 | 134 | 0.0 | 3.2 | 0.00 | 0.00 | 0.00 | 31 | 1015.0 |
| 20260507070517 | 20 | 140 | 0.0 | 1.6 | 0.00 | 0.00 | 0.00 | 30 | 1015.0 |
| 20260507070017 | 20 | 138 | 0.0 | 1.6 | 0.00 | 0.00 | 0.00 | 30 | 1015.0 |
| 20260507065517 | 20 | 137 | 0.0 | 1.6 | 0.00 | 0.00 | 0.00 | 30 | 1015.0 |
| 20260507065017 | 20 | 141 | 0.0 | 0.0 | 0.00 | 0.00 | 0.00 | 30 | 1015.0 |
| 20260507064516 | 20 | 144 | 0.0 | 1.6 | 0.00 | 0.00 | 0.00 | 30 | 1015.0 |
| 20260507064016 | 20 | 146 | 0.0 | 3.2 | 0.00 | 0.00 | 0.00 | 30 | 1015.0 |
| 20260507063516 | 20 | 151 | 0.0 | 3.2 | 0.00 | 0.00 | 0.00 | 29 | 1015.0 |
| 20260507063017 | 20 | 153 | 0.0 | 1.6 | 0.00 | 0.00 | 0.00 | 29 | 1015.0 |
| 20260507062517 | 20 | 132 | 0.0 | 1.6 | 0.00 | 0.00 | 0.00 | 30 | 1015.0 |
| 20260507062017 | 20 | 130 | 0.0 | 3.2 | 0.00 | 0.00 | 0.00 | 30 | 1015.0 |
| 20260507061517 | 20 | 128 | 0.0 | 3.2 | 0.00 | 0.00 | 0.00 | 30 | 1015.0 |
| 20260507061016 | 20 | 121 | 0.0 | 1.6 | 0.00 | 0.00 | 0.00 | 30 | 1015.0 |
| 20260507060516 | 20 | 136 | 1.6 | 6.4 | 0.00 | 0.00 | 0.00 | 30 | 1015.0 |
| 20260507060016 | 20 | 145 | 1.6 | 6.4 | 0.00 | 0.00 | 0.00 | 29 | 1015.0 |
| 20260507055517 | 21 | 143 | 0.0 | 6.4 | 0.00 | 0.00 | 0.00 | 29 | 1015.0 |
| 20260507055017 | 21 | 150 | 0.0 | 0.0 | 0.00 | 0.00 | 0.00 | 29 | 1015.1 |
| 20260507054517 | 21 | 150 | 0.0 | 0.0 | 0.00 | 0.00 | 0.00 | 28 | 1015.1 |
| 20260507054016 | 21 | 143 | 0.0 | 0.0 | 0.00 | 0.00 | 0.00 | 28 | 1015.1 |
| 20260507053517 | 21 | 148 | 0.0 | 0.0 | 0.00 | 0.00 | 0.00 | 28 | 1015.1 |
| 20260507053016 | 21 | 144 | 0.0 | 0.0 | 0.00 | 0.00 | 0.00 | 28 | 1015.0 |
| 20260507052516 | 21 | 147 | 0.0 | 0.0 | 0.00 | 0.00 | 0.00 | 27 | 1015.0 |
| 20260507052017 | 21 | 147 | 0.0 | 0.0 | 0.00 | 0.00 | 0.00 | 28 | 1015.0 |
| 20260507051517 | 21 | 148 | 0.0 | 0.0 | 0.00 | 0.00 | 0.00 | 28 | 1014.9 |
| 20260507051016 | 21 | 119 | 0.0 | 3.2 | 0.00 | 0.00 | 0.00 | 28 | 1014.9 |
| 20260507050517 | 22 | 120 | 0.0 | 3.2 | 0.00 | 0.00 | 0.00 | 28 | 1014.9 |
| 20260507050016 | 22 | 121 | 1.6 | 4.8 | 0.00 | 0.00 | 0.00 | 28 | 1014.8 |
| 20260507045516 | 22 | 118 | 1.6 | 4.8 | 0.00 | 0.00 | 0.00 | 28 | 1014.8 |
| 20260507045016 | 22 | 99 | 0.0 | 3.2 | 0.00 | 0.00 | 0.00 | 28 | 1014.7 |
| 20260507044516 | 22 | 103 | 0.0 | 0.0 | 0.00 | 0.00 | 0.00 | 28 | 1014.7 |
| 20260507044016 | 22 | 107 | 0.0 | 0.0 | 0.00 | 0.00 | 0.00 | 28 | 1014.6 |
| 20260507043517 | 22 | 108 | 0.0 | 0.0 | 0.00 | 0.00 | 0.00 | 28 | 1014.6 |
| 20260507043016 | 22 | 108 | 0.0 | 0.0 | 0.00 | 0.00 | 0.00 | 27 | 1014.6 |
| 20260507042516 | 22 | 109 | 0.0 | 0.0 | 0.00 | 0.00 | 0.00 | 27 | 1014.5 |
| 20260507042016 | 22 | 110 | 0.0 | 0.0 | 0.00 | 0.00 | 0.00 | 27 | 1014.4 |
| 20260507041516 | 23 | 111 | 0.0 | 0.0 | 0.00 | 0.00 | 0.00 | 26 | 1014.4 |
| 20260507041017 | 23 | 108 | 0.0 | 1.6 | 0.00 | 0.00 | 0.00 | 27 | 1014.3 |
| 20260507040517 | 23 | 110 | 0.0 | 1.6 | 0.00 | 0.00 | 0.00 | 26 | 1014.2 |
| 20260507040016 | 23 | 108 | 0.0 | 3.2 | 0.00 | 0.00 | 0.00 | 26 | 1014.1 |
| 20260507035517 | 23 | 107 | 0.0 | 3.2 | 0.00 | 0.00 | 0.00 | 26 | 1014.1 |
| 20260507035017 | 23 | 95 | 0.0 | 4.8 | 0.00 | 0.00 | 0.00 | 25 | 1014.0 |
| 20260507034516 | 23 | 94 | 0.0 | 4.8 | 0.00 | 0.00 | 0.00 | 26 | 1013.9 |
| 20260507034017 | 24 | 114 | 0.0 | 3.2 | 0.00 | 0.00 | 0.00 | 26 | 1013.9 |
| 20260507033517 | 24 | 114 | 0.0 | 3.2 | 0.00 | 0.00 | 0.00 | 25 | 1013.8 |
| 20260507033017 | 24 | 115 | 0.0 | 4.8 | 0.00 | 0.00 | 0.00 | 25 | 1013.7 |
| 20260507032516 | 25 | 107 | 0.0 | 4.8 | 0.00 | 0.00 | 0.00 | 25 | 1013.6 |
| 20260507032017 | 25 | 109 | 1.6 | 8.0 | 0.00 | 0.00 | 0.00 | 25 | 1013.5 |
| 20260507031517 | 25 | 142 | 1.6 | 8.0 | 0.00 | 0.00 | 0.00 | 24 | 1013.5 |
| 20260507031017 | 25 | 126 | 3.2 | 9.7 | 0.00 | 0.00 | 0.00 | 24 | 1013.4 |
| 20260507030517 | 25 | 139 | 4.8 | 9.7 | 0.00 | 0.00 | 0.00 | 23 | 1013.4 |
| 20260507030016 | 25 | 120 | 6.4 | 14.5 | 0.00 | 0.00 | 0.00 | 23 | 1013.3 |
| 20260507025516 | 25 | 147 | 8.0 | 16.1 | 0.00 | 0.00 | 0.00 | 22 | 1013.3 |
| 20260507025017 | 25 | 104 | 8.0 | 16.1 | 0.00 | 0.00 | 0.00 | 22 | 1013.2 |
| 20260507024517 | 25 | 127 | 6.4 | 14.5 | 0.00 | 0.00 | 0.00 | 22 | 1013.2 |
| 20260507024017 | 25 | 149 | 4.8 | 12.9 | 0.00 | 0.00 | 0.00 | 22 | 1013.2 |
| 20260507023516 | 26 | 124 | 6.4 | 12.9 | 0.00 | 0.00 | 0.00 | 22 | 1013.2 |
| 20260507023017 | 26 | 121 | 6.4 | 16.1 | 0.00 | 0.00 | 0.00 | 21 | 1013.1 |
| 20260507022517 | 26 | 116 | 8.0 | 19.3 | 0.00 | 0.00 | 0.00 | 21 | 1013.1 |
| 20260507022016 | 26 | 126 | 9.7 | 19.3 | 0.00 | 0.00 | 0.00 | 21 | 1013.1 |
| 20260507021517 | 26 | 116 | 11.3 | 16.1 | 0.00 | 0.00 | 0.00 | 21 | 1013.0 |
| 20260507021016 | 26 | 138 | 11.3 | 17.7 | 0.00 | 0.00 | 0.00 | 21 | 1013.0 |
| 20260507020517 | 26 | 141 | 12.9 | 19.3 | 0.00 | 0.00 | 0.00 | 20 | 1013.0 |
| 20260507020016 | 26 | 126 | 12.9 | 19.3 | 0.00 | 0.00 | 0.00 | 20 | 1013.0 |
| 20260507015516 | 27 | 94 | 12.9 | 24.1 | 0.00 | 0.00 | 0.00 | 20 | 1012.9 |
| 20260507015017 | 27 | 97 | 12.9 | 24.1 | 0.00 | 0.00 | 0.00 | 20 | 1012.9 |
| 20260507014517 | 27 | 130 | 14.5 | 24.1 | 0.00 | 0.00 | 0.00 | 20 | 1012.9 |
| 20260507014016 | 27 | 109 | 12.9 | 20.9 | 0.00 | 0.00 | 0.00 | 20 | 1012.9 |
| 20260507013517 | 27 | 144 | 11.3 | 16.1 | 0.00 | 0.00 | 0.00 | 20 | 1012.9 |
| 20260507013017 | 27 | 126 | 12.9 | 22.5 | 0.00 | 0.00 | 0.00 | 20 | 1012.9 |
| 20260507012517 | 27 | 119 | 11.3 | 22.5 | 0.00 | 0.00 | 0.00 | 20 | 1012.9 |
| 20260507012017 | 27 | 92 | 11.3 | 19.3 | 0.00 | 0.00 | 0.00 | 20 | 1012.8 |
| 20260507011517 | 27 | 164 | 14.5 | 22.5 | 0.00 | 0.00 | 0.00 | 20 | 1012.8 |
| 20260507011016 | 28 | 84 | 16.1 | 22.5 | 0.00 | 0.00 | 0.00 | 20 | 1012.8 |
| 20260507010517 | 28 | 80 | 14.5 | 24.1 | 0.00 | 0.00 | 0.00 | 19 | 1012.8 |
| 20260507010017 | 28 | 98 | 14.5 | 25.7 | 0.00 | 0.00 | 0.00 | 19 | 1012.8 |
| 20260507005517 | 28 | 177 | 12.9 | 25.7 | 0.00 | 0.00 | 0.00 | 19 | 1012.8 |
| 20260507005016 | 28 | 85 | 12.9 | 25.7 | 0.00 | 0.00 | 0.00 | 19 | 1012.8 |
| 20260507004516 | 28 | 94 | 8.0 | 25.7 | 0.00 | 0.00 | 0.00 | 19 | 1012.8 |
| 20260507004016 | 28 | 120 | 8.0 | 22.5 | 0.00 | 0.00 | 0.00 | 19 | 1012.8 |
| 20260507003516 | 28 | 188 | 11.3 | 22.5 | 0.00 | 0.00 | 0.00 | 18 | 1012.8 |
| 20260507003017 | 28 | 147 | 12.9 | 25.7 | 0.00 | 0.00 | 0.00 | 19 | 1012.8 |
| 20260507002517 | 28 | 86 | 12.9 | 25.7 | 0.00 | 0.00 | 0.00 | 19 | 1012.8 |
| 20260507002016 | 28 | 64 | 6.4 | 19.3 | 0.00 | 0.00 | 0.00 | 19 | 1012.8 |
| 20260507001517 | 29 | 219 | 3.2 | 12.9 | 0.00 | 0.00 | 0.00 | 19 | 1012.8 |
| 20260507001016 | 29 | 136 | 1.6 | 12.9 | 0.00 | 0.00 | 0.00 | 19 | 1012.8 |
| 20260507000517 | 29 | 153 | 6.4 | 19.3 | 0.00 | 0.00 | 0.00 | 19 | 1012.8 |
| 20260507000017 | 29 | 71 | 9.7 | 19.3 | 0.00 | 0.00 | 0.00 | 18 | 1012.9 |
| 20260506235517 | 29 | 74 | 8.0 | 17.7 | 0.00 | 0.00 | 0.00 | 19 | 1012.9 |
| 20260506235016 | 29 | 100 | 6.4 | 17.7 | 0.00 | 0.00 | 0.00 | 18 | 1013.0 |
| 20260506234517 | 29 | 182 | 4.8 | 16.1 | 0.00 | 0.00 | 0.00 | 18 | 1013.0 |
| 20260506234016 | 30 | 206 | 3.2 | 11.3 | 0.00 | 0.00 | 0.00 | 19 | 1013.0 |
| 20260506233516 | 30 | 202 | 3.2 | 12.9 | 0.00 | 0.00 | 0.00 | 20 | 1013.1 |
| 20260506233016 | 30 | 223 | 3.2 | 12.9 | 0.00 | 0.00 | 0.00 | 19 | 1013.2 |
| 20260506232516 | 30 | 103 | 3.2 | 14.5 | 0.00 | 0.00 | 0.00 | 19 | 1013.2 |
| 20260506232016 | 30 | 184 | 4.8 | 14.5 | 0.00 | 0.00 | 0.00 | 19 | 1013.3 |
| 20260506231517 | 30 | 251 | 9.7 | 27.4 | 0.00 | 0.00 | 0.00 | 18 | 1013.3 |
| 20260506231016 | 30 | 176 | 12.9 | 27.4 | 0.00 | 0.00 | 0.00 | 18 | 1013.4 |
| 20260506230517 | 30 | 90 | 9.7 | 20.9 | 0.00 | 0.00 | 0.00 | 18 | 1013.4 |
| 20260506230016 | 30 | 98 | 6.4 | 19.3 | 0.00 | 0.00 | 0.00 | 18 | 1013.5 |
| 20260506225516 | 30 | 185 | 4.8 | 14.5 | 0.00 | 0.00 | 0.00 | 19 | 1013.5 |
| 20260506225017 | 30 | 106 | 8.0 | 27.4 | 0.00 | 0.00 | 0.00 | 19 | 1013.6 |
| 20260506224516 | 30 | 45 | 8.0 | 27.4 | 0.00 | 0.00 | 0.00 | 18 | 1013.6 |
| 20260506224016 | 30 | 174 | 9.7 | 22.5 | 0.00 | 0.00 | 0.00 | 18 | 1013.7 |
| 20260506223517 | 30 | 106 | 9.7 | 22.5 | 0.00 | 0.00 | 0.00 | 18 | 1013.7 |
| 20260506223017 | 30 | 153 | 8.0 | 16.1 | 0.00 | 0.00 | 0.00 | 18 | 1013.8 |
| 20260506222517 | 30 | 44 | 9.7 | 16.1 | 0.00 | 0.00 | 0.00 | 18 | 1013.8 |
| 20260506222016 | 30 | 15 | 8.0 | 16.1 | 0.00 | 0.00 | 0.00 | 19 | 1013.9 |
| 20260506221516 | 30 | 223 | 8.0 | 19.3 | 0.00 | 0.00 | 0.00 | 19 | 1014.0 |
| 20260506221017 | 30 | 116 | 9.7 | 22.5 | 0.00 | 0.00 | 0.00 | 19 | 1014.0 |
| 20260506220517 | 30 | 159 | 8.0 | 22.5 | 0.00 | 0.00 | 0.00 | 19 | 1014.1 |
| 20260506220016 | 30 | 110 | 9.7 | 19.3 | 0.00 | 0.00 | 0.00 | 18 | 1014.2 |
| 20260506215517 | 30 | 99 | 11.3 | 20.9 | 0.00 | 0.00 | 0.00 | 18 | 1014.3 |
| 20260506215016 | 30 | 246 | 9.7 | 20.9 | 0.00 | 0.00 | 0.00 | 19 | 1014.4 |
| 20260506214516 | 30 | 198 | 6.4 | 22.5 | 0.00 | 0.00 | 0.00 | 20 | 1014.5 |
| 20260506214016 | 30 | 99 | 6.4 | 22.5 | 0.00 | 0.00 | 0.00 | 19 | 1014.6 |
| 20260506213517 | 30 | 44 | 4.8 | 12.9 | 0.00 | 0.00 | 0.00 | 19 | 1014.6 |
| 20260506213016 | 30 | 76 | 4.8 | 12.9 | 0.00 | 0.00 | 0.00 | 18 | 1014.7 |
| 20260506212517 | 30 | 235 | 4.8 | 11.3 | 0.00 | 0.00 | 0.00 | 19 | 1014.8 |
| 20260506212016 | 30 | 44 | 6.4 | 17.7 | 0.00 | 0.00 | 0.00 | 19 | 1014.9 |
| 20260506211516 | 30 | 22 | 9.7 | 20.9 | 0.00 | 0.00 | 0.00 | 18 | 1015.0 |
| 20260506211017 | 30 | 219 | 11.3 | 27.4 | 0.00 | 0.00 | 0.00 | 21 | 1015.1 |
| 20260506210517 | 30 | 133 | 6.4 | 27.4 | 0.00 | 0.00 | 0.00 | 18 | 1015.1 |
| 20260506210017 | 30 | 200 | 6.4 | 29.0 | 0.00 | 0.00 | 0.00 | 17 | 1015.2 |
| 20260506205517 | 30 | 174 | 6.4 | 29.0 | 0.00 | 0.00 | 0.00 | 17 | 1015.3 |
| 20260506205016 | 30 | 58 | 6.4 | 27.4 | 0.00 | 0.00 | 0.00 | 19 | 1015.4 |
| 20260506204516 | 30 | 139 | 8.0 | 27.4 | 0.00 | 0.00 | 0.00 | 18 | 1015.4 |
| 20260506204016 | 30 | 126 | 4.8 | 17.7 | 0.00 | 0.00 | 0.00 | 17 | 1015.5 |
| 20260506203517 | 30 | 68 | 6.4 | 19.3 | 0.00 | 0.00 | 0.00 | 18 | 1015.5 |
| 20260506203017 | 30 | 44 | 12.9 | 27.4 | 0.00 | 0.00 | 0.00 | 18 | 1015.6 |
| 20260506202517 | 30 | 102 | 11.3 | 27.4 | 0.00 | 0.00 | 0.00 | 18 | 1015.6 |
| 20260506202017 | 29 | 76 | 4.8 | 17.7 | 0.00 | 0.00 | 0.00 | 18 | 1015.7 |
| 20260506201517 | 29 | 31 | 6.4 | 19.3 | 0.00 | 0.00 | 0.00 | 18 | 1015.7 |
| 20260506201016 | 29 | 224 | 6.4 | 19.3 | 0.00 | 0.00 | 0.00 | 19 | 1015.8 |
| 20260506200517 | 29 | 144 | 6.4 | 17.7 | 0.00 | 0.00 | 0.00 | 19 | 1015.9 |
| 20260506200016 | 29 | 207 | 6.4 | 17.7 | 0.00 | 0.00 | 0.00 | 18 | 1015.9 |
| 20260506195516 | 28 | 44 | 8.0 | 17.7 | 0.00 | 0.00 | 0.00 | 18 | 1016.0 |
| 20260506195017 | 28 | 34 | 11.3 | 19.3 | 0.00 | 0.00 | 0.00 | 19 | 1016.0 |
| 20260506194517 | 28 | 20 | 11.3 | 19.3 | 0.00 | 0.00 | 0.00 | 19 | 1016.1 |
| 20260506194016 | 29 | 209 | 6.4 | 19.3 | 0.00 | 0.00 | 0.00 | 19 | 1016.1 |
| 20260506193517 | 29 | 160 | 6.4 | 16.1 | 0.00 | 0.00 | 0.00 | 19 | 1016.2 |
| 20260506193017 | 29 | 91 | 6.4 | 16.1 | 0.00 | 0.00 | 0.00 | 19 | 1016.2 |
| 20260506192516 | 29 | 69 | 12.9 | 32.2 | 0.00 | 0.00 | 0.00 | 18 | 1016.3 |
| 20260506192017 | 28 | 219 | 9.7 | 32.2 | 0.00 | 0.00 | 0.00 | 18 | 1016.3 |
| 20260506191516 | 28 | 113 | 3.2 | 16.1 | 0.00 | 0.00 | 0.00 | 20 | 1016.4 |
| 20260506191017 | 28 | 85 | 9.7 | 32.2 | 0.00 | 0.00 | 0.00 | 20 | 1016.4 |
| 20260506190517 | 28 | 162 | 11.3 | 32.2 | 0.00 | 0.00 | 0.00 | 19 | 1016.4 |
| 20260506190018 | 28 | 144 | 9.7 | 22.5 | 0.00 | 0.00 | 0.00 | 20 | 1016.5 |
| 20260506185517 | 28 | 168 | 8.0 | 17.7 | 0.00 | 0.00 | 0.00 | 20 | 1016.6 |
| 20260506185017 | 28 | 49 | 11.3 | 29.0 | 0.00 | 0.00 | 0.00 | 19 | 1016.6 |
| 20260506184517 | 28 | 104 | 12.9 | 29.0 | 0.00 | 0.00 | 0.00 | 20 | 1016.7 |
| 20260506184017 | 28 | 94 | 9.7 | 20.9 | 0.00 | 0.00 | 0.00 | 22 | 1016.8 |
| 20260506183516 | 28 | 44 | 9.7 | 20.9 | 0.00 | 0.00 | 0.00 | 20 | 1016.8 |
| 20260506183017 | 28 | 178 | 8.0 | 22.5 | 0.00 | 0.00 | 0.00 | 21 | 1016.9 |
| 20260506182517 | 28 | 115 | 8.0 | 22.5 | 0.00 | 0.00 | 0.00 | 21 | 1016.9 |
| 20260506182017 | 28 | 96 | 9.7 | 24.1 | 0.00 | 0.00 | 0.00 | 22 | 1017.0 |
| 20260506181516 | 28 | 110 | 9.7 | 24.1 | 0.00 | 0.00 | 0.00 | 21 | 1017.0 |
| 20260506181016 | 28 | 174 | 4.8 | 14.5 | 0.00 | 0.00 | 0.00 | 22 | 1017.0 |
| 20260506180517 | 28 | 150 | 9.7 | 17.7 | 0.00 | 0.00 | 0.00 | 21 | 1017.1 |
| 20260506180017 | 28 | 245 | 9.7 | 19.3 | 0.00 | 0.00 | 0.00 | 20 | 1017.1 |
| 20260506175516 | 28 | 151 | 6.4 | 19.3 | 0.00 | 0.00 | 0.00 | 21 | 1017.1 |
| 20260506175016 | 28 | 112 | 4.8 | 11.3 | 0.00 | 0.00 | 0.00 | 22 | 1017.2 |
| 20260506174517 | 28 | 34 | 6.4 | 16.1 | 0.00 | 0.00 | 0.00 | 22 | 1017.2 |
| 20260506174017 | 28 | 74 | 8.0 | 20.9 | 0.00 | 0.00 | 0.00 | 22 | 1017.2 |
| 20260506173516 | 27 | 129 | 8.0 | 20.9 | 0.00 | 0.00 | 0.00 | 23 | 1017.2 |
| 20260506173016 | 28 | 227 | 4.8 | 19.3 | 0.00 | 0.00 | 0.00 | 22 | 1017.2 |
| 20260506172516 | 27 | 116 | 4.8 | 14.5 | 0.00 | 0.00 | 0.00 | 22 | 1017.2 |
| 20260506172017 | 28 | 237 | 6.4 | 17.7 | 0.00 | 0.00 | 0.00 | 23 | 1017.2 |
| 20260506171517 | 27 | 118 | 6.4 | 17.7 | 0.00 | 0.00 | 0.00 | 21 | 1017.2 |
| 20260506171017 | 27 | 96 | 9.7 | 17.7 | 0.00 | 0.00 | 0.00 | 22 | 1017.1 |
| 20260506170517 | 27 | 98 | 9.7 | 17.7 | 0.00 | 0.00 | 0.00 | 21 | 1017.1 |
| 20260506170016 | 27 | 94 | 3.2 | 17.7 | 0.00 | 0.00 | 0.00 | 22 | 1017.1 |
| 20260506165516 | 26 | 127 | 3.2 | 16.1 | 0.00 | 0.00 | 0.00 | 22 | 1017.1 |
| 20260506165017 | 26 | 153 | 4.8 | 16.1 | 0.00 | 0.00 | 0.00 | 22 | 1017.1 |
| 20260506164516 | 26 | 73 | 6.4 | 19.3 | 0.00 | 0.00 | 0.00 | 23 | 1017.1 |
| 20260506164016 | 26 | 117 | 8.0 | 19.3 | 0.00 | 0.00 | 0.00 | 23 | 1017.1 |
| 20260506163517 | 25 | 143 | 8.0 | 16.1 | 0.00 | 0.00 | 0.00 | 23 | 1017.1 |
| 20260506163016 | 25 | 75 | 4.8 | 16.1 | 0.00 | 0.00 | 0.00 | 25 | 1017.0 |
| 20260506162517 | 25 | 143 | 4.8 | 16.1 | 0.00 | 0.00 | 0.00 | 25 | 1017.0 |
| 20260506162017 | 24 | 105 | 6.4 | 16.1 | 0.00 | 0.00 | 0.00 | 25 | 1017.0 |
| 20260506161517 | 23 | 129 | 6.4 | 12.9 | 0.00 | 0.00 | 0.00 | 25 | 1017.0 |
| 20260506161017 | 23 | 119 | 4.8 | 12.9 | 0.00 | 0.00 | 0.00 | 26 | 1017.0 |
| 20260506160517 | 23 | 76 | 4.8 | 12.9 | 0.00 | 0.00 | 0.00 | 26 | 1017.0 |
| 20260506160016 | 22 | 122 | 6.4 | 12.9 | 0.00 | 0.00 | 0.00 | 27 | 1017.0 |
| 20260506155516 | 22 | 136 | 6.4 | 12.9 | 0.00 | 0.00 | 0.00 | 28 | 1017.1 |
| 20260506155016 | 22 | 145 | 6.4 | 11.3 | 0.00 | 0.00 | 0.00 | 28 | 1017.1 |
| 20260506154516 | 22 | 99 | 4.8 | 11.3 | 0.00 | 0.00 | 0.00 | 30 | 1017.1 |
| 20260506154016 | 21 | 179 | 4.8 | 11.3 | 0.00 | 0.00 | 0.00 | 29 | 1017.2 |
| 20260506153517 | 21 | 152 | 3.2 | 11.3 | 0.00 | 0.00 | 0.00 | 30 | 1017.2 |
| 20260506153016 | 21 | 238 | 1.6 | 11.3 | 0.00 | 0.00 | 0.00 | 30 | 1017.2 |
| 20260506152517 | 21 | 208 | 3.2 | 9.7 | 0.00 | 0.00 | 0.00 | 31 | 1017.2 |